Tracking 19242 objects as of 16-Aug-2018
HD Live streaming from Space Station
objects crossing your sky now

HOT BIRD 1

Track HOT BIRD 1 now!
HOT BIRD 1 is classified as:


NORAD ID: 23537
Int'l Code: 1995-016B
Perigee: 36,057.7 km
Apogee: 36,070.8 km
Inclination: 9.6 °
Period: 1,449.9 minutes
Semi major axis: 42435 km
RCS: 7.9621 m2 (large)
Launch date: March 28, 1995
Source: European Telecommunications Satellite Organization (EUTE)
Launch site: FRENCH GUIANA (FRGUI)

Cable programming; direct-to-home broadcasting; 16 channels, Western Europe
aabbcc
Your satellite tracking list
Your tracking list is empty




NASA's NSSDC Master Catalog

Two Line Element Set (TLE):
1 23537U 95016B   18227.62953157 +.00000050 +00000-0 +00000-0 0  9994
2 23537 009.5718 041.7277 0001546 028.4833 341.0717 00.99314657085284
Source of the keplerian elements: AFSPC